STARLINK-32431, 61256

Orbit data source: Space-Track

STARLINK-32431, 61256 is a payload satellite owned by SpaceX/Seattle (US) in LEO that was launched on Wed, 25 Sep 2024 UTC via an FALCON 9 launch vehicle from the Air Force Western Test Range (AFWTR). Payload-class satellites include a variety of spacecraft equipped with specific instruments for various scientific and technological missions. These include communications satellites like Starlink; space stations such as the ISS; scientific satellites like the Hubble; Earth observation satellites from companies like Planet Labs, Umbra, and HawkEye 360; GPS; miniature CubeSats for education and research; and military/defense satellites.

Loading next visibility...
Identifier
61256, 2024-175P
Orbit
LEO
Country
Flag of USUS
Related business
Manufacturer
SpaceX/Seattle
Mission
Operational Commercial Communications
Bus & Motor
STARLINK V2M, Unknown motor
Mass
730 kg wet, ~700 kg dry
Launch date (UTC)
2024-09-25 (1 year ago)
Launch vehicle
FALCON 9
Launch site
Air Force Western Test Range (AFWTR)
Object type
Payload
Rocket body
Debris
Shape & HBR
Box + 2 Pan, 17.7 m
Radar Cross Section
33.884 m², Large (>1 m²)

Expand to show TLE details & history
Last TLE update: 15 hours ago

TLE from 15 hours ago
0 STARLINK-32431
1 61256U 24175P   25312.46586869  .00008124  00000-0  28611-3 0  9990
2 61256  53.1582  37.1151 0001210 117.2379 242.8745 15.30198633 62894
Epoch: 2025-11-08T11:10Z
TLE epoch observation values (Epoch: 2025-11-08T11:10:51.054Z)
Latitude
-0.00005°
Longitude
-178.49274°
Altitude
476.497 km
Speed
7.629 km/s
True Right ascension
02h 28m 27s
True Declination
0° 00' 00"
Sunlit
Object was in full shadow at epoch
Visualization orbit readout
Latitude
Unknown
Longitude
Unknown
Altitude
Unknown
Speed
Unknown
Apparent Right ascension
Unknown
Apparent Declination
Unknown
Sunlit
N/A
Visualization observer readout
Local Sidereal Time
22:22:48
Azimuth
Unknown
Elevation
Unknown
Doppler factor
Unknown
Orbital elements
Apogee altitude
476.305 km
Perigee altitude
474.647 km
Semi-major axis
6,853.613 km
Eccentricity
0.00012
Inclination
53.1582°
RAAN
37.1151°
Arg. of periapsis
117.2379°
True anomaly
242.86216°
Mean anomaly
242.8745°
Eccentric anomaly
242.86833°
Mean motion
3.82529 °/min
Orbital period
94.11 mins
BSTAR
0.00028611
Loading maneuver chart data...
Computing Atmospheric mass density...
Loading historical data...
Loading historical data...
Loading historical data...
Loading historical data...
Loading historical data...
Loading historical data...
Loading historical data...

Documentation

Showing up to 5 results
|